Flag for Colombia Weather past 2 weeks in Medellin, Colombia

Now
59 °F

Partly cloudy.


Feels Like: 59 °F
Forecast: 61 / 82 °F
Wind: No wind

Location: Rionegro / J. M. Cordova

Current Time: Aug 2, 2014 at 12:22:01 AM

Latest Report: Aug 2, 2014 at 12:00 AM


Visibility: N/A

Pressure: 30.30 "Hg

Humidity: 82%

Dew point: 54 °F

Location of MedellinLocation

Historic Weather in Medellin — Graph

°F

Medellin temperature yesterday

Maximum temperature yesterday: 75 °F (at 1:00 PM)
Minimum temperature yesterday: 54 °F (at 4:00 AM)
Average temperature yesterday: 64 °F

Past Weeks' High & Low Weather Summary

 TemperatureHumidityPressure
High75 °F (Jul 19, 2:00 PM)100% (Jul 20, 3:00 AM)30.40 "Hg (Jul 20, 3:00 AM)
Low48 °F (Jul 20, 6:00 AM)27% (Aug 1, 6:00 PM)30.17 "Hg (Aug 1, 4:00 PM)
Average63 °F71%30.29 "Hg
* Reported Jul 17 11:00 PM — Aug 1 11:00 PM, Medellin, Weather by CustomWeather, © 2014

Note: Actual official high and low records may vary slightly from our data, if they occured in-between our weather recording intervals... More about our weather records

Advertising

Medellin weather history for previous 24 hours

 ConditionsComfort  
Time TempWeatherWind HumidityBarometerVisibility
11:00 PM
Aug 1
59 °FPartly cloudy.No wind82%30.30 "HgN/A
10:00 PM63 °FPartly cloudy.No wind68%30.31 "HgN/A
9:00 PM63 °FMostly cloudy.No wind73%30.27 "HgN/A
8:00 PM66 °FOvercast.No wind60%30.25 "HgN/A
7:00 PM66 °FPartly cloudy.5 mph60%30.23 "HgN/A
6:00 PM70 °FScattered showers. Partly sunny.10 mph27%30.18 "HgN/A
5:00 PM72 °FPartly sunny.12 mph50%30.18 "HgN/A
4:00 PM73 °FPartly sunny.14 mph47%30.17 "HgN/A
3:00 PM73 °FPartly sunny.14 mph47%30.19 "HgN/A
2:00 PM73 °FScattered clouds.14 mph44%30.22 "HgN/A
1:00 PM75 °FPartly sunny.14 mph41%30.23 "HgN/A
12:00 PM73 °FScattered clouds.12 mph47%30.25 "HgN/A
11:00 AM72 °FScattered clouds.9 mph50%30.27 "HgN/A
10:00 AM68 °FScattered clouds.9 mph60%30.28 "HgN/A
9:00 AM64 °FScattered clouds.No wind68%30.28 "HgN/A
8:00 AM61 °FScattered clouds.No wind83%30.27 "HgN/A
7:00 AM55 °FPassing clouds.No wind88%30.26 "HgN/A
6:00 AM55 °FFog.No wind88%30.25 "HgN/A
5:00 AM54 °FFog.No wind94%30.24 "HgN/A
4:00 AM54 °FFog.No wind94%30.23 "HgN/A
3:00 AM55 °FPassing clouds.N/A94%30.26 "HgN/A
2:00 AM57 °FPassing clouds.No wind88%30.29 "HgN/A
1:00 AM59 °FPassing clouds.No wind88%30.30 "HgN/A
12:00 AM59 °FPassing clouds.No wind88%30.29 "HgN/A
Weather by CustomWeather, © 2014

See weather overviewHow to use our weather pages